Weather History for Litchfield, MN

Change the Weather History Date:

Tuesday, November 9, 2010

  Actual Average Record
Temperature  
Mean Temperature 52 °F -  
Max Temperature 66 °F 42 °F 69 °F (1999)
Min Temperature 37 °F 26 °F 9 °F (1973)
Degree Days  
Heating Degree Days 14    
Growing Degree Days 2 (Base 50)    
Moisture  
Dew Point 42 °F    
Average Humidity 69    
Maximum Humidity 93    
Minimum Humidity 45    
Precipitation  
Precipitation 0.00 in - - ()
Sea Level Pressure  
Sea Level Pressure 29.72 in    
Wind  
Wind Speed 7 mph (SE)    
Max Wind Speed 18 mph    
Max Gust Speed 22 mph    
Visibility 10 miles    
Events      
Averages and records for this station are not official NWS values.
T = Trace of Precipitation, MM = Missing Value Source: NWS Daily Summary

Daily Weather History Graph

Daily Weather History Graph

Search for Another Location

Airport:

Trip Planner

Search our weather history database for the weather conditions in past years. The results will help you decide how hot, cold, wet, or windy it might be!

Date:

Astronomy

Nov. 09, 2010 Rise Set
Actual Time 7:07 AM CST 4:55 PM CST
Civil Twilight 6:36 AM CST 5:26 PM CST
Nautical Twilight 6:01 AM CST 6:01 PM CST
Astronomical Twilight 5:26 AM CST 6:36 PM CST
Moon 10:55 AM CST (11/9) 7:48 PM CST (11/9)
Length of Visible Light 10h 50m
Length of Day
9h 47m
Waxing Crescent, 15% of the Moon is Illuminated
Nov 9
Waxing Crescent
Nov 13
First Quarter
Nov 21
Full
Nov 28
Last Quarter
Dec 5
New

Hourly Weather History & Observations

Time (CST) Temp. Windchill Dew Point Humidity Pressure Visibility Wind Dir Wind Speed Gust Speed Precip Events Conditions
12:14 AM 44.6 °F - 39.2 °F 81% 29.70 in 10.0 mi Calm Calm - N/A   Clear
12:34 AM 44.6 °F 43.1 °F 39.2 °F 81% 29.70 in 10.0 mi SSE 3.5 mph - N/A   Clear
12:54 AM 46.4 °F 45.2 °F 39.2 °F 76% 29.70 in 10.0 mi SSE 3.5 mph - N/A   Clear
1:14 AM 44.6 °F 43.1 °F 39.2 °F 81% 29.71 in 10.0 mi SSE 3.5 mph - N/A   Clear
1:34 AM 46.4 °F - 39.2 °F 76% 29.71 in 10.0 mi Calm Calm - N/A   Clear
1:54 AM 44.6 °F - 37.4 °F 76% 29.71 in 10.0 mi Calm Calm - N/A   Clear
2:14 AM 46.4 °F 45.2 °F 39.2 °F 76% 29.71 in 10.0 mi SSE 3.5 mph - N/A   Clear
2:34 AM 46.4 °F 44.3 °F 39.2 °F 76% 29.71 in 10.0 mi SSE 4.6 mph - N/A   Clear
2:54 AM 44.6 °F 42.2 °F 37.4 °F 76% 29.71 in 10.0 mi SE 4.6 mph - N/A   Clear
3:14 AM 41.0 °F 38.0 °F 37.4 °F 87% 29.71 in 10.0 mi SSE 4.6 mph - N/A   Clear
3:34 AM 44.6 °F 42.2 °F 39.2 °F 81% 29.72 in 10.0 mi SSE 4.6 mph - N/A   Clear
3:54 AM 39.2 °F 37.0 °F 35.6 °F 87% 29.71 in 10.0 mi SE 3.5 mph - N/A   Clear
4:14 AM 39.2 °F 35.9 °F 37.4 °F 93% 29.72 in 10.0 mi SSE 4.6 mph - N/A   Clear
4:34 AM 37.4 °F 34.9 °F 35.6 °F 93% 29.72 in 10.0 mi SE 3.5 mph - N/A   Clear
4:54 AM 39.2 °F 35.9 °F 37.4 °F 93% 29.72 in 10.0 mi SE 4.6 mph - N/A   Clear
5:14 AM 42.8 °F 40.1 °F 37.4 °F 81% 29.72 in 10.0 mi SE 4.6 mph - N/A   Clear
5:34 AM 39.2 °F 34.2 °F 35.6 °F 87% 29.72 in 10.0 mi SE 6.9 mph - N/A   Clear
5:54 AM 42.8 °F 38.0 °F 37.4 °F 81% 29.73 in 10.0 mi SE 8.1 mph - N/A   Clear
6:14 AM 42.8 °F 39.3 °F 37.4 °F 81% 29.73 in 10.0 mi SE 5.8 mph - N/A   Clear
6:54 AM 41.0 °F 36.4 °F 37.4 °F 87% 29.73 in 10.0 mi SE 6.9 mph - N/A   Clear
7:14 AM 41.0 °F 35.8 °F 37.4 °F 87% 29.73 in 10.0 mi SE 8.1 mph - N/A   Clear
7:54 AM 42.8 °F 38.6 °F 39.2 °F 87% 29.75 in 10.0 mi SE 6.9 mph - N/A   Clear
8:14 AM 44.6 °F 40.7 °F 39.2 °F 81% 29.75 in 10.0 mi SE 6.9 mph - N/A   Clear
8:34 AM 46.4 °F 42.9 °F 39.2 °F 76% 29.76 in 10.0 mi SE 6.9 mph - N/A   Clear
9:14 AM 48.2 °F - 42.8 °F 82% 29.76 in 10.0 mi SE 8.1 mph - N/A   Clear
9:34 AM 51.8 °F - 42.8 °F 71% 29.76 in 10.0 mi SSE 5.8 mph - N/A   Clear
9:54 AM 51.8 °F - 42.8 °F 71% 29.75 in 10.0 mi SE 9.2 mph - N/A   Clear
10:14 AM 55.4 °F - 42.8 °F 63% 29.75 in 10.0 mi SE 9.2 mph - N/A   Clear
10:54 AM 57.2 °F - 42.8 °F 59% 29.75 in 10.0 mi SE 11.5 mph - N/A   Clear
11:14 AM 59.0 °F - 42.8 °F 55% 29.75 in 10.0 mi SE 12.7 mph - N/A   Clear
11:34 AM 60.8 °F - 42.8 °F 52% 29.75 in 10.0 mi SE 12.7 mph - N/A   Clear
11:54 AM 62.6 °F - 44.6 °F 52% 29.74 in 10.0 mi SE 13.8 mph - N/A   Clear
12:14 PM 62.6 °F - 42.8 °F 48% 29.73 in 10.0 mi ESE 17.3 mph - N/A   Clear
12:34 PM 64.4 °F - 42.8 °F 45% 29.72 in 10.0 mi SE 15.0 mph 18.4 mph N/A   Clear
12:54 PM 62.6 °F - 44.6 °F 52% 29.72 in 10.0 mi ESE 15.0 mph - N/A   Clear
1:14 PM 64.4 °F - 44.6 °F 49% 29.71 in 10.0 mi SE 18.4 mph 21.9 mph N/A   Clear
1:34 PM 66.2 °F - 44.6 °F 46% 29.70 in 10.0 mi SE 17.3 mph - N/A   Clear
1:54 PM 64.4 °F - 44.6 °F 49% 29.70 in 10.0 mi SE 13.8 mph 18.4 mph N/A   Clear
2:14 PM 64.4 °F - 44.6 °F 49% 29.70 in 10.0 mi SE 16.1 mph - N/A   Clear
2:34 PM 64.4 °F - 46.4 °F 52% 29.69 in 10.0 mi ESE 15.0 mph - N/A   Clear
2:54 PM 64.4 °F - 46.4 °F 52% 29.69 in 10.0 mi SE 15.0 mph - N/A   Clear
3:14 PM 64.4 °F - 46.4 °F 52% 29.69 in 10.0 mi SE 16.1 mph - N/A   Clear
3:34 PM 64.4 °F - 46.4 °F 52% 29.69 in 10.0 mi SE 16.1 mph - N/A   Clear
3:54 PM 62.6 °F - 46.4 °F 55% 29.69 in 10.0 mi SE 16.1 mph - N/A   Clear
4:14 PM 62.6 °F - 46.4 °F 55% 29.69 in 10.0 mi SE 16.1 mph 20.7 mph N/A   Clear
4:33 PM 60.8 °F - 46.4 °F 59% 29.69 in 10.0 mi ESE 16.1 mph - N/A   Clear
4:54 PM 60.8 °F - 46.4 °F 59% 29.69 in 10.0 mi ESE 15.0 mph - N/A   Clear
5:14 PM 59.0 °F - 46.4 °F 63% 29.69 in 10.0 mi ESE 15.0 mph - N/A   Clear
5:34 PM 59.0 °F - 46.4 °F 63% 29.70 in 10.0 mi ESE 15.0 mph 20.7 mph N/A   Clear
5:54 PM 57.2 °F - 46.4 °F 67% 29.70 in 10.0 mi ESE 13.8 mph - N/A   Clear
6:14 PM 57.2 °F - 46.4 °F 67% 29.70 in 10.0 mi SE 12.7 mph - N/A   Clear
6:34 PM 57.2 °F - 46.4 °F 67% 29.70 in 10.0 mi SE 13.8 mph - N/A   Clear
6:54 PM 57.2 °F - 46.4 °F 67% 29.70 in 10.0 mi SE 13.8 mph - N/A   Clear
7:14 PM 57.2 °F - 46.4 °F 67% 29.71 in 10.0 mi SE 11.5 mph - N/A   Clear
7:34 PM 55.4 °F - 46.4 °F 72% 29.71 in 10.0 mi SE 12.7 mph - N/A   Clear
7:54 PM 57.2 °F - 46.4 °F 67% 29.71 in 10.0 mi SE 9.2 mph - N/A   Clear
8:14 PM 57.2 °F - 46.4 °F 67% 29.71 in 10.0 mi SE 10.4 mph - N/A   Clear
8:34 PM 55.4 °F - 46.4 °F 72% 29.72 in 10.0 mi SE 9.2 mph - N/A   Clear
8:54 PM 55.4 °F - 46.4 °F 72% 29.73 in 10.0 mi SE 9.2 mph - N/A   Clear
9:14 PM 55.4 °F - 46.4 °F 72% 29.73 in 10.0 mi SE 9.2 mph - N/A   Clear
9:34 PM 55.4 °F - 46.4 °F 72% 29.73 in 10.0 mi SE 8.1 mph - N/A   Clear
9:54 PM 55.4 °F - 46.4 °F 72% 29.73 in 10.0 mi SE 9.2 mph - N/A   Clear
10:14 PM 55.4 °F - 46.4 °F 72% 29.74 in 10.0 mi SE 10.4 mph - N/A   Clear
10:34 PM 55.4 °F - 46.4 °F 72% 29.74 in 10.0 mi SSE 10.4 mph - N/A   Clear
10:54 PM 57.2 °F - 46.4 °F 67% 29.74 in 10.0 mi SE 10.4 mph - N/A   Clear
11:14 PM 55.4 °F - 46.4 °F 72% 29.74 in 10.0 mi SE 9.2 mph - N/A   Clear
11:34 PM 55.4 °F - 46.4 °F 72% 29.74 in 10.0 mi SE 10.4 mph - N/A   Clear
11:54 PM 55.4 °F - 46.4 °F 72% 29.75 in 10.0 mi SE 11.5 mph 16.1 mph N/A   Clear